This is the latest recevied weather packets stored in our database for station/object WAYLND-WX. If no packets are shown the sender has not sent any weather packets the latest 10 day(s).
| Time | Temp. | Humidity | Pressure | Rain* | Wind** | Luminosity | Snow |
|---|---|---|---|---|---|---|---|
| 1777269672 | 8.89° C | 69% | 989.3 hPa | 0 mm | - | - | - |
| 1777268745 | 8.89° C | 69% | 989.2 hPa | 0 mm | - | - | - |
| 1777267857 | 8.89° C | 69% | 988.9 hPa | 0 mm | - | - | - |
| 1777266945 | 8.89° C | 69% | 988.9 hPa | 0 mm | - | - | - |
| 1777266071 | 9.44° C | 69% | 988.9 hPa | 0 mm | - | - | - |
| 1777265145 | 9.44° C | 65% | 988.3 hPa | 0 mm | - | - | - |
| 1777264259 | 10° C | 66% | 988.3 hPa | 0 mm | - | - | - |
| 1777263345 | 9.44° C | 66% | 988.3 hPa | 0 mm | - | - | - |
| 1777262467 | 10° C | 66% | 988.3 hPa | 0 mm | - | - | - |
| 1777261544 | 10.56° C | 64% | 989.3 hPa | 0 mm | - | - | - |
| 1777260653 | 10.56° C | 65% | 990 hPa | 0 mm | - | - | - |
| 1777259741 | 10.56° C | 65% | 989.9 hPa | 0 mm | - | - | - |
| 1777258868 | 11.11° C | 65% | 989.9 hPa | 0 mm | - | - | - |
| 1777257941 | 11.67° C | 65% | 990.1 hPa | 0 mm | - | - | - |
| 1777257055 | 11.67° C | 69% | 990.1 hPa | 0 mm | - | - | - |
| 1777256142 | 12.22° C | 69% | 990.1 hPa | 0 mm | - | - | - |
| 1777255262 | 12.78° C | 69% | 990.1 hPa | 0 mm | - | - | - |
| 1777254341 | 12.78° C | 64% | 989.2 hPa | 0 mm | - | - | - |
| 1777253451 | 13.33° C | 64% | 989.2 hPa | 0 mm | - | - | - |
| 1777252539 | 13.33° C | 64% | 989.1 hPa | 0 mm | - | - | - |
| 1777251661 | 13.89° C | 64% | 989.1 hPa | 0 mm | - | - | - |
| 1777249851 | 14.44° C | 59% | 990.5 hPa | 0 mm | - | - | - |
| 1777248944 | 15° C | 59% | 990.5 hPa | 0 mm | - | - | - |
| 1777248072 | 15.56° C | 59% | 990.5 hPa | 0 mm | - | - | - |
| 1777247143 | 16.67° C | 51% | 988.8 hPa | 0 mm | - | - | - |
* Rain latest hour (hover to see other rain measurements)
** Current wind speed in m/s (hover to see current wind gust speed)